Weather in Frunzenskoye

Russia / Chechen Republic     43°38′06″N   45°39′44″E
temp.,
°C
wind,
m/s
gust,
m/s
humid.,
%
clouds,
%
prec.,
mm/h
press.,
hPa
HPBL,
m
11 may, tue
tue1100:00+9wsw35625 0.0 102097
03:00+7sw11695 0.0 101910
06:00+9ene23625 0.0 1019131
09:00+14e610496 0.0 10181504
12:00+18ese993715 0.0 10152045
15:00+18ese99401 0.0 10151749
18:00+15e78545 0.0 10171103
21:00+12e5107011 0.0 1017370
12 may, wed
wed1200:00+10e24820 0.0 101697
03:00+8ese22880 0.0 101627
06:00+10e12810 0.0 1017126
09:00+16e34530 0.0 1017885
12:00+20e34440 0.0 10161395
15:00+22e344430 0.0 10151713
18:00+20ene445735 0.0 1015817
21:00+15ese36640 0.0 1016146
13 may, thu
thu1300:00+13ese34690 0.0 101584
03:00+12ese33760 0.0 101458
06:00+13ese23780 0.0 1015137
09:00+19e34582 0.0 1015593
12:00+24e45441 0.0 1014978
15:00+27e55415 0.0 10131225
18:00+23ese5754100 0.0 1013430
21:00+17ese366984 0.0 1015137
14 may, fri
fri1400:00+14ese347480 0.0 101492
03:00+13e34845 0.0 101478
06:00+14se11825 0.0 101495
09:00+21e21563 0.0 1014434
12:00+27e34463 0.0 1013863
15:00+30e66390 0.0 10111047
18:00+25e59470 0.0 1012520
21:00+20e512490 0.0 1012335
15 may, sat
sat1500:00+18ese49630 0.0 1011196
03:00+17ese35695 0.0 1011117
06:00+18se11680 0.0 101280
09:00+24wnw12535 0.0 1012474
12:00+29nnw114291 0.0 10131121
15:00+31ese65310 0.0 10111439
18:00
21:00+20se3356100 3.1 101462